Lapse_Rate
6.8 6.5 6.4 6.5 6.2 6.0 6.2 6.0 5.7 5.6 5.6 5.8 6.1 6.1 5.5 4.9 4.1 4.0 4.0 4.4 5.1 6.9 7.4 7.1 7.0 6.7 7.1 7.3 7.2 7.1 7.3 7.7 7.9
5.7 5.6 5.4 5.9 6.4 6.5 6.4 6.2 6.3 6.1 5.9 5.8 5.9 6.0 5.9 5.0 3.6 3.3 3.5 4.0 5.5 7.0 7.7 7.3 7.0 7.1 7.1 7.4 7.4 7.3 7.3 8.0 8.6
5.5 5.4 5.4 5.2 5.9 6.1 6.2 6.2 6.4 6.5 6.4 6.3 6.1 5.8 5.7 5.2 4.0 3.5 3.4 3.9 5.6 6.9 7.5 7.5 7.1 7.1 7.1 7.3 7.3 7.5 7.7 8.8 8.7
4.4 4.2 4.3 4.8 5.1 5.3 5.5 5.8 5.8 5.9 6.1 6.2 6.4 6.3 6.1 4.9 4.1 3.9 3.5 3.9 5.5 6.5 7.0 7.3 7.2 7.3 7.2 7.1 7.1 7.3 7.6 8.1 7.8
2.7 2.8 3.1 4.1 4.2 4.4 4.9 5.0 5.5 5.4 5.1 5.3 6.1 5.9 5.9 5.0 4.2 3.9 3.9 4.5 5.6 6.3 6.7 7.1 7.0 7.0 7.1 7.3 7.7 7.2 7.4 7.5 7.5
1.8 1.8 2.4 3.3 3.6 3.7 4.0 4.0 4.0 3.7 3.8 3.9 4.2 4.7 4.6 4.6 4.0 3.8 3.9 5.0 5.8 6.2 6.4 6.5 6.8 6.9 6.9 6.9 7.0 7.2 7.1 7.2 8.0
1.2 1.2 1.5 1.8 2.0 2.1 2.7 2.7 2.6 2.1 2.3 3.1 3.6 3.5 3.7 4.1 4.4 4.3 4.6 5.3 5.8 6.5 6.7 6.5 6.5 6.7 6.7 6.7 6.9 7.0 6.9 7.0 7.3
0.5 0.3 0.4 0.4 0.7 0.3 0.4 0.2 0.4 0.4 0.6 1.0 2.0 3.1 3.5 4.3 4.6 4.8 4.5 4.9 5.7 6.3 7.0 6.8 6.5 6.5 6.6 6.7 6.8 6.8 6.7 6.6 6.8
-0.1 -0.0 0.1 -0.1 -0.2 -0.7 -0.5 -0.8 -0.6 -0.2 0.3 0.4 0.6 1.7 2.6 3.5 4.5 4.9 4.4 4.7 5.1 5.3 6.2 6.5 6.9 6.5 6.6 6.8 6.8 6.7 6.5 6.5 6.5
-0.3 -0.2 0.2 0.1 0.1 -0.3 -0.8 -0.7 -0.7 -0.8 -0.3 0.2 0.3 0.7 1.4 2.3 3.1 4.2 4.3 4.0 4.6 5.0 5.4 5.9 6.6 6.7 6.7 6.5 6.4 6.3 6.5 6.5 6.5
-0.1 -0.6 -0.5 -0.4 -0.1 0.0 -0.6 -1.1 -1.1 -1.0 -0.8 -0.2 0.4 0.2 0.6 1.4 2.2 3.2 3.7 3.8 4.4 4.9 5.5 5.9 6.4 6.6 6.9 7.0 6.7 6.1 6.1 6.4 6.3
0.4 -1.0 -1.2 -0.9 -0.4 -0.4 -0.5 -0.7 -0.6 -1.0 -0.1 -0.5 -0.1 0.1 0.6 0.7 1.3 2.2 2.8 3.6 4.1 4.5 5.2 5.8 5.9 6.0 6.5 6.8 7.3 6.7 6.4 6.1 6.2
0.1 -0.7 -0.9 -0.6 -0.6 -0.8 -1.5 -1.3 -1.4 -1.0 -0.7 -1.0 -0.4 -0.0 0.5 0.9 1.3 2.1 2.4 2.9 3.4 3.6 4.6 5.3 5.8 6.1 6.2 6.4 6.7 7.0 6.4 6.3 6.0
1.4 0.1 -0.3 -0.5 -1.2 -1.4 -1.5 -1.1 -1.2 -0.9 -0.4 0.3 1.0 0.8 0.7 1.2 2.8 1.6 2.2 2.9 3.3 3.2 3.6 4.2 4.3 4.9 5.9 6.7 6.8 6.7 6.7 6.5 6.0
1.5 0.9 0.4 0.2 -0.8 -1.1 -1.4 -1.3 -0.9 -0.3 -0.2 1.3 1.4 0.4 1.2 1.7 2.4 1.9 2.7 3.1 4.0 3.9 3.9 3.7 3.7 4.1 4.8 5.8 6.3 6.4 6.5 6.6 6.5
0.8 1.0 0.8 0.4 0.0 -1.1 -1.1 -0.9 -0.5 0.1 0.7 0.9 1.3 1.7 2.7 3.4 4.3 3.4 2.9 4.1 4.3 4.4 4.3 3.9 4.0 4.3 4.7 4.8 5.5 5.8 6.1 6.0 6.2
0.9 0.8 0.8 0.5 0.3 0.4 -0.2 -0.0 0.6 1.4 1.6 2.4 3.0 3.8 3.9 3.7 4.1 3.7 4.5 3.7 3.6 3.8 4.6 4.3 4.2 4.1 3.9 4.3 4.9 5.1 5.6 6.1 6.4
0.8 1.0 0.7 0.7 0.8 0.9 0.9 1.2 1.8 3.1 3.7 3.4 3.9 4.8 5.3 5.2 4.2 3.8 3.2 3.1 2.9 3.0 3.4 4.4 4.4 4.3 3.9 3.9 3.9 4.4 5.2 6.1 7.2
0.8 0.9 0.9 0.7 0.9 1.2 1.9 3.2 2.6 2.6 3.3 4.0 5.5 5.4 6.4 6.3 5.2 4.0 3.3 2.8 4.2 3.2 2.8 2.9 3.5 3.9 3.7 3.6 3.8 4.4 4.9 6.0 6.6
0.6 0.7 0.6 0.8 1.0 1.5 4.3 3.6 3.7 3.6 3.7 4.1 4.5 5.7 7.8 6.7 6.7 6.9 6.8 6.2 3.2 3.6 3.2 2.9 2.6 3.6 3.8 3.6 4.2 4.9 5.3 5.7 6.0
Wind_Speed
12 12 13 14 13 11 11 10 11 12 11 10 10 9 8 7 6 6 6 6 8 9 6 6 6 4 4 4 4 5 8 11 7
12 11 11 12 13 14 14 12 13 12 14 13 12 11 10 8 7 7 8 7 7 10 10 8 8 8 7 5 6 6 8 7 5
12 14 12 11 12 10 10 13 15 12 12 15 16 14 12 10 9 9 9 10 8 10 13 12 11 10 10 9 8 7 11 7 7
10 12 12 12 11 11 11 11 10 11 12 14 15 16 15 12 11 10 11 11 11 11 15 17 16 14 13 13 13 12 10 8 10
12 12 12 12 11 11 12 12 10 10 11 12 16 15 16 14 13 12 14 13 14 15 13 18 17 16 15 16 15 14 15 15 13
10 10 11 11 12 11 11 12 13 12 10 10 11 13 10 11 11 12 14 16 18 18 19 18 19 19 19 17 18 18 17 17 18
10 10 9 10 11 11 11 11 12 12 11 10 9 7 8 8 9 11 15 18 21 21 22 21 20 20 21 21 21 21 21 20 20
11 11 11 11 10 12 12 12 10 10 10 11 10 8 7 6 8 10 15 19 24 23 22 23 23 23 22 24 23 24 23 23 22
8 7 10 9 10 9 9 8 10 9 8 7 8 9 7 7 9 10 15 17 20 21 20 19 21 24 25 25 26 26 26 25 24
6 6 8 9 10 7 6 6 6 5 7 7 5 6 7 8 8 9 13 15 17 18 19 19 19 20 23 25 26 26 27 27 26
4 5 5 6 9 10 7 4 4 4 4 5 5 5 7 8 9 9 10 13 13 14 15 16 18 18 18 22 25 27 28 29 28
5 3 3 6 10 9 8 6 4 3 4 5 5 5 7 6 8 10 10 11 12 12 11 11 11 13 15 17 20 23 27 30 30
5 3 3 6 7 6 3 3 4 4 3 3 4 4 4 5 7 9 10 9 9 9 12 13 12 11 11 12 13 16 19 24 28
8 5 5 7 5 3 4 3 2 3 4 4 4 4 4 5 4 6 7 9 10 10 10 11 11 11 11 11 11 11 11 9 11
9 6 5 7 4 4 3 3 3 3 4 5 5 4 4 3 4 5 5 6 6 4 4 6 7 9 9 9 9 10 10 11 11
7 4 4 5 4 4 4 3 4 2 3 2 3 3 3 2 3 3 3 4 5 7 7 6 7 9 10 11 11 10 10 9 13
5 3 4 4 3 5 4 3 3 2 3 2 1 3 3 3 3 3 3 5 4 5 7 6 7 7 8 10 11 11 11 11 11
3 3 3 4 2 3 3 3 4 4 3 3 2 3 2 3 2 2 3 4 4 4 5 7 8 9 8 8 9 10 11 10 11
4 4 3 3 3 4 2 2 2 2 2 3 2 1 1 2 4 2 4 4 7 5 4 5 8 10 9 8 8 10 10 10 12
4 4 3 3 3 4 4 3 2 1 2 1 2 1 2 2 3 5 5 5 3 4 4 4 4 9 8 8 9 9 11 13 13
Wind_Direction
302 303 294 284 265 258 263 267 263 238 229 236 238 236 228 220 219 245 259 290 261 236 231 220 209 197 176 176 118 139 156 142 139
353 346 348 306 285 280 269 259 264 258 239 237 241 239 232 229 219 232 248 267 261 236 233 218 226 225 218 211 201 194 201 209 177
350 353 348 341 345 325 306 295 281 279 265 258 250 234 235 228 229 232 242 252 262 250 251 227 221 225 222 222 221 228 222 192 210
359 357 358 358 355 352 342 332 320 302 283 266 260 255 237 234 231 234 236 243 255 262 253 256 225 220 231 235 233 234 226 222 202
355 356 354 354 1 2 358 349 325 318 317 307 260 257 251 231 232 234 239 242 249 251 258 257 248 220 227 234 234 232 227 225 223
345 345 350 354 355 0 1 359 359 349 332 326 313 286 249 233 231 235 238 244 249 250 250 252 253 242 231 226 228 227 230 230 228
333 335 343 349 352 353 355 356 356 356 346 337 327 314 272 241 240 236 241 251 255 251 249 248 249 248 240 229 225 230 231 230 235
343 340 344 345 349 346 345 345 345 338 337 335 333 323 298 269 259 260 255 260 268 269 268 257 249 247 246 238 228 226 227 230 233
346 345 344 349 352 348 348 341 332 329 321 316 317 319 310 289 284 274 268 271 277 284 288 287 270 254 252 244 237 229 230 228 230
340 345 347 349 352 351 339 333 325 323 322 317 305 303 304 303 290 277 283 282 284 290 292 290 286 274 260 253 242 238 233 230 230
344 345 347 351 351 339 334 319 312 312 314 311 307 289 287 284 281 278 273 279 286 292 298 301 293 288 280 268 253 246 240 235 232
333 341 343 337 338 336 338 328 325 326 321 304 298 291 280 274 279 278 280 284 285 286 289 303 307 302 297 290 274 265 254 244 241
343 334 332 335 341 338 332 317 318 308 308 300 292 283 285 279 271 275 274 273 283 287 296 293 297 299 305 300 289 294 281 264 251
332 327 327 340 341 339 330 313 288 297 299 290 278 279 272 272 297 284 282 282 278 274 282 292 299 298 295 291 293 298 305 307 292
328 326 337 346 340 336 337 308 304 263 286 295 290 271 277 288 290 282 279 283 307 326 338 342 343 345 333 316 311 306 300 296 295
336 323 336 346 346 329 341 315 328 315 331 316 332 323 343 71 311 345 46 12 14 19 14 14 20 6 11 7 1 353 341 313 284
334 334 328 339 339 342 359 2 333 310 350 4 275 351 336 346 17 17 56 18 18 3 355 352 353 354 348 342 342 341 346 339 326
346 312 310 317 328 329 330 350 4 352 320 319 213 12 354 321 325 25 28 30 1 336 340 331 328 329 317 322 325 337 341 331 319
310 308 296 295 299 306 303 2 332 326 309 317 14 31 89 335 320 332 352 350 345 327 320 309 312 318 316 320 324 329 334 328 320
287 289 285 290 298 290 301 309 315 280 287 308 330 293 287 203 243 300 307 314 308 291 284 292 294 302 308 319 320 333 343 332 319